Tracking 22925 objects as of 7-May-2021
HD Live streaming from Space Station
objects crossing your sky now

CZ-4C DEB

Track CZ-4C DEB now!
10-day predictions


NORAD ID: 37567
Int'l Code: 2010-038C
Perigee: 587.3 km
Apogee: 793.5 km
Inclination: 97.9 °
Period: 98.4 minutes
Semi major axis: 7061 km
RCS: 0.0012 m2 (small)
Launch date: August 9, 2010
Source: People's Republic of China (PRC)
Launch site: Taiyaun Space Center, China (TSC)

Note: This is SATELLITE DEBRIS
aabbcc
Your satellite tracking list
Your tracking list is empty




NASA's NSSDC Master Catalog

Two Line Element Set (TLE):
1 37567U 10038C   21126.19600969  .00000599  00000-0  10857-3 0  9999
2 37567  97.8616   2.2609 0145986 149.6625 339.8883 14.63069718566905
Source of the keplerian elements: AFSPC